Location: Newark
(12.4436°N, 0.6167°W)
Time: 18:07:37
(UTC+00:00)

Transit 2A - All Passes

Search period start: 08 December 2019 00:00
Search period end: 18 December 2019 00:00
Orbit: 602 x 957 km, 66.7° (Epoch: 07 December)

Date Brightness Start Highest point End Pass type
(mag) Time Alt. Az. Time Alt. Az. Time Alt. Az.
08 Dec - 06:05:31 10° S 06:10:55 59° ESE 06:15:46 10° NNE daylight
08 Dec - 16:50:07 10° N 16:54:10 28° ENE 16:58:32 10° SE daylight
08 Dec - 18:33:53 10° WNW 18:37:06 17° WSW 18:40:29 10° SSW visible
09 Dec - 05:31:53 10° S 05:36:49 35° ESE 05:41:18 10° NE visible
09 Dec - 07:16:50 10° WSW 07:19:44 15° WNW 07:22:30 10° NNW daylight
09 Dec - 16:17:04 10° NNE 16:20:05 16° ENE 16:23:14 10° ESE daylight
09 Dec - 17:58:48 10° NW 18:02:59 29° WSW 18:07:32 10° S visible
10 Dec - 04:58:43 10° SSE 05:02:42 21° ESE 05:06:25 10° ENE visible
10 Dec - 06:41:20 10° WSW 06:45:38 25° WNW 06:49:38 10° NNW daylight
10 Dec - 17:24:14 10° NW 17:28:53 50° WSW 17:34:00 10° S daylight
11 Dec - 04:26:35 10° SE 04:28:35 12° ESE 04:30:32 10° E visible
11 Dec - 06:06:31 10° SW 06:11:34 42° WNW 06:16:09 10° N daylight
11 Dec - 16:50:01 10° NNW 16:54:48 87° WSW 17:00:07 10° SSE daylight
12 Dec - 05:32:06 10° SSW 05:37:30 73° WNW 05:42:21 10° NNE visible
12 Dec - 16:16:03 10° N 16:20:44 54° ENE 16:25:53 10° SSE daylight
13 Dec - 04:58:02 10° SSW 05:03:25 66° ESE 05:08:15 10° NNE visible
13 Dec - 15:42:24 10° N 15:46:39 31° ENE 15:51:16 10° SE daylight
13 Dec - 17:26:38 10° WNW 17:29:35 16° WSW 17:32:42 10° SW daylight
14 Dec - 04:24:19 10° S 04:29:19 38° ESE 04:33:52 10° NE visible
14 Dec - 06:09:55 10° W 06:12:14 13° WNW 06:14:28 10° NW daylight
14 Dec - 15:09:12 10° NNE 15:12:34 19° ENE 15:16:08 10° ESE daylight
14 Dec - 16:51:23 10° NW 16:55:29 27° WSW 16:59:55 10° SSW daylight
15 Dec - 03:51:03 10° SSE 03:55:12 23° ESE 03:59:04 10° ENE visible
15 Dec - 05:34:07 10° WSW 05:38:08 22° WNW 05:41:52 10° NNW visible
15 Dec - 14:37:21 10° NE 14:38:27 11° ENE 14:39:33 10° E daylight
15 Dec - 16:16:44 10° NW 16:21:23 45° WSW 16:26:29 10° S daylight
16 Dec - 03:18:36 10° SE 03:21:06 13° ESE 03:23:29 10° E visible
16 Dec - 04:59:12 10° SW 05:04:03 37° WNW 05:08:30 10° N visible
16 Dec - 15:42:27 10° NNW 15:47:17 78° WSW 15:52:39 10° SSE daylight
17 Dec - 04:24:42 10° SSW 04:29:59 64° WNW 04:34:45 10° NNE visible
17 Dec - 15:08:26 10° N 15:13:12 61° ENE 15:18:30 10° SSE daylight
